Livigno, Italy 16 day weather forecast

Slopes altitude range 1815 m - 2795m

Number of lifts: 30 Pistes: 115km

In some cases the lift and piste totals shown are for the ski domain (e.g. Three Valleys) rather than individual resort (e.g. Courchevel)

Overview

The 16 day weather forecast is fully updated 4 times every day.

    • Wed 23 MAY 2018
    • Wed 23
    • 3C 7C
    • Thu 24 MAY 2018
    • Thu 24
    • 5C 9C
    • Fri 25 MAY 2018
    • Fri 25
    • 7C 13C
    • Sat 26 MAY 2018
    • Sat 26
    • 9C 15C
    • Sun 27 MAY 2018
    • Sun 27
    • 10C 14C
    • Mon 28 MAY 2018
    • Mon 28
    • 9C 15C
    • Tue 29 MAY 2018
    • Tue 29
    • 8C 13C
    • Wed 30 MAY 2018
    • Wed 30
    • 13C 20C
    • Thu 31 MAY 2018
    • Thu 31
    • 14C 19C
    • Fri 01 JUN 2018
    • Fri 01
    • 12C 17C
    • Sat 02 JUN 2018
    • Sat 02
    • 12C 18C
    • Sun 03 JUN 2018
    • Sun 03
    • 13C 19C
    • Mon 04 JUN 2018
    • Mon 04
    • 4C 8C
    • Tue 05 JUN 2018
    • Tue 05
    • 4C 11C
    • Wed 06 JUN 2018
    • Wed 06
    • 6C 7C
    • Thu 07 JUN 2018
    • Thu 07
    • 4C 12C

Date:

Time Type 0°C level Temp Chill Snow Cloud Speed Gust Dir Press
3:00 2084m -2°C -2_1 0cm 83% 1mph 2mph 1017mB
6:00 2912m -3°C -3_2 0cm 46% 2mph 2mph 1017mB
9:00 3076m 3°C 3_3 0cm 24% 3mph 3mph 1017mB
12:00 3208m 7°C 7_6 0cm 62% 6mph 6mph 1016mB
15:00 3287m 8°C 8_8 0cm 92% 8mph 8mph 1015mB
18:00 3314m 8°C 8_5 0cm 72% 5mph 6mph 1017mB
21:00 2741m 0°C 0_1 0cm 14% 1mph 2mph 1018mB
0:00 2985m 0°C 0_1 0cm 53% 1mph 2mph 1019mB
3:00 2725m 0°C 0_1 0cm 100% 1mph 2mph 1019mB
6:00 3212m 0°C 0_1 0cm 91% 1mph 1mph 1019mB
9:00 3250m 5°C 5_2 0cm 2% 2mph 2mph 1019mB
12:00 3402m 9°C 9_5 0cm 48% 5mph 5mph 1017mB
15:00 3504m 10°C 10_4 0cm 99% 4mph 5mph 1016mB
18:00 3533m 10°C 10_4 0cm 84% 4mph 5mph 1017mB
21:00 3556m 4°C 4_6 0cm 7% 6mph 7mph 1020mB
0:00 3643m 2°C 2_5 0cm 7% 5mph 6mph 1020mB
3:00 3679m 2°C 2_6 0cm 38% 6mph 7mph 1019mB
6:00 3676m 2°C 2_6 0cm 65% 6mph 7mph 1019mB
9:00 3669m 7°C 7_3 0cm 84% 3mph 2mph 1018mB
12:00 3737m 13°C 13_2 0cm 61% 2mph 2mph 1017mB
15:00 3789m 14°C 14_4 0cm 65% 4mph 4mph 1016mB
18:00 3818m 14°C 14_4 0cm 81% 4mph 5mph 1018mB
21:00 3869m 7°C 7_4 0cm 100% 4mph 5mph 1020mB
0:00 3857m 4°C 4_1 0cm 65% 1mph 2mph 1020mB
3:00 3922m 3°C 3_3 0cm 35% 3mph 4mph 1020mB
6:00 3943m 3°C 3_2 0cm 52% 2mph 2mph 1020mB
9:00 3936m 9°C 9_2 0cm 45% 2mph 2mph 1020mB
12:00 3907m 15°C 15_3 0cm 68% 3mph 3mph 1019mB
15:00 3994m 15°C 15_4 0cm 100% 4mph 5mph 1019mB
18:00 3932m 15°C 15_2 0cm 100% 2mph 3mph 1020mB
21:00 3929m 8°C 8_2 0cm 100% 2mph 2mph 1022mB
0:00 3930m 8°C 8_1 0cm 100% 1mph 1mph 1022mB
3:00 3893m 7°C 7_1 0cm 100% 1mph 2mph 1021mB
6:00 3880m 6°C 6_5 0cm 100% 5mph 5mph 1020mB
9:00 3882m 10°C 10_5 0cm 51% 5mph 4mph 1020mB
12:00 3909m 14°C 14_4 0cm 76% 4mph 4mph 1018mB
15:00 3929m 15°C 15_5 0cm 100% 5mph 5mph 1018mB
18:00 3916m 15°C 15_2 0cm 100% 2mph 3mph 1019mB
21:00 3894m 8°C 8_3 0cm 100% 3mph 4mph 1020mB
0:00 3926m 8°C 8_4 0cm 100% 4mph 5mph 1020mB
3:00 3982m 5°C 5_3 0cm 94% 3mph 4mph 1019mB
6:00 3899m 5°C 5_8 0cm 93% 8mph 9mph 1019mB
9:00 3942m 9°C 9_8 0cm 97% 8mph 7mph 1017mB
12:00 3871m 15°C 15_10 0cm 98% 10mph 9mph 1016mB
15:00 3933m 15°C 15_11 0cm 100% 11mph 12mph 1015mB
18:00 3977m 15°C 15_8 0cm 100% 8mph 9mph 1016mB
21:00 3917m 7°C 7_6 0cm 100% 6mph 8mph 1017mB
0:00 3799m 6°C 6_6 0cm 100% 6mph 7mph 1017mB
3:00 3849m 5°C 5_6 0cm 100% 6mph 7mph 1017mB
6:00 3985m 4°C 4_6 0cm 100% 6mph 7mph 1017mB
9:00 3904m 8°C 8_8 0cm 7% 8mph 8mph 1016mB
12:00 4000m 13°C 13_10 0cm 37% 10mph 11mph 1014mB
15:00 4016m 13°C 13_10 0cm 44% 10mph 10mph 1014mB
18:00 3963m 13°C 13_5 0cm 55% 5mph 5mph 1015mB
21:00 3994m 5°C 5_2 0cm 60% 2mph 2mph 1016mB
0:00 3978m 4°C 4_2 0cm 66% 2mph 3mph 1016mB
3:00 4027m 3°C 3_2 0cm 87% 2mph 3mph 1016mB
6:00 3992m 3°C 3_2 0cm 53% 2mph 3mph 1016mB
9:00 3983m 13°C 13_2 0cm 0% 2mph 3mph 1014mB
12:00 3952m 20°C 20_5 0cm 10% 5mph 5mph 1013mB
15:00 4105m 20°C 20_6 0cm 94% 6mph 6mph 1012mB
18:00 4015m 20°C 20_2 0cm 97% 2mph 3mph 1013mB
21:00 4000m 12°C 12_2 0cm 100% 2mph 3mph 1015mB
0:00 4033m 10°C 10_4 0cm 97% 4mph 5mph 1015mB
3:00 3977m 9°C 9_5 0cm 61% 5mph 6mph 1015mB
6:00 3949m 9°C 9_3 0cm 65% 3mph 4mph 1015mB
9:00 3958m 14°C 14_3 0cm 19% 3mph 3mph 1014mB
12:00 4041m 19°C 19_6 0cm 18% 6mph 3mph 1014mB
15:00 4064m 18°C 18_6 0cm 91% 6mph 6mph 1014mB
18:00 3975m 18°C 18_5 0cm 95% 5mph 6mph 1015mB
21:00 3943m 11°C 11_1 0cm 100% 1mph 2mph 1017mB
0:00 3916m 9°C 9_2 0cm 91% 2mph 3mph 1017mB
3:00 3889m 8°C 8_2 0cm 66% 2mph 3mph 1017mB
6:00 3862m 8°C 8_1 0cm 65% 1mph 2mph 1018mB
9:00 3907m 12°C 12_5 0cm 45% 5mph 3mph 1017mB
12:00 4002m 17°C 17_7 0cm 38% 7mph 7mph 1017mB
15:00 4006m 17°C 17_7 0cm 80% 7mph 8mph 1016mB
18:00 4001m 17°C 17_4 0cm 90% 4mph 5mph 1017mB
Morning 0.046875mm 0.5625 3931m 8°C 8_3 0cm 47% 3mph 5mph 1019mB
Afternoon 1.20312mm 13.3125 3998m 18°C 18_4 0cm 72% 4mph 4mph 1016mB
Morning 0.03125mm 0.3125 3941m 9°C 9_4 0cm 79% 4mph 5mph 1014mB
Afternoon 1.47917mm 14.9375 3838m 19°C 19_3 0cm 92% 3mph 4mph 1011mB
Morning 0.947917mm 2.3125 3371m 8°C 8_7 0cm 100% 7mph 11mph 1013mB
Afternoon 2.32292mm 0.0625 2805m 8°C 8_4 0cm 100% 4mph 7mph 1015mB
Morning 0.265625mm 0 2675m 3°C 3_3 0cm 98% 3mph 6mph 1014mB
Afternoon 0.0364583mm 0.125 3353m 11°C 11_5 0cm 73% 5mph 7mph 1010mB
Morning 0.09375mm 0 2889m 3°C 3_3 0cm 78% 3mph 4mph 1012mB
Afternoon 0.661458mm 0.375 2768m 7°C 7_7 0cm 100% 7mph 12mph 1012mB
Morning 0.15625mm 0.125 2495m 3°C 3_5 0cm 97% 5mph 6mph 1015mB
Afternoon 0.0104167mm 0 2739m 12°C 12_9 0cm 45% 9mph 10mph 1014mB

16 day outlook at a glance

Forecast issued: 23/05/2018 04:24:45

Chat

Your comments and questions. In a resort? Let us know what it's like!


Characters left 250

For terms and conditions see Readers Comments on the Cookie and privacy policy page.